Location: Casteau
(50.5142°N, 4.0161°E)
Time: 15:55:28
(UTC+00:00)

Explorer 11/Cluster Stage 4 - Pass Details

Date: 02 August 2021
Orbit: 467 x 1256 km, 28.8° (Epoch: 23 September)

Event Time Altitude Azimuth Distance (km) Brightness Sun altitude
Rises 09:39:35 0° 227° (SW) 4,140 10.2 48.1°
Reaches altitude 10° 09:44:09 10° 205° (SSW) 3,221 10.0 48.6°
Maximum altitude 09:48:00 14° 176° (S) 2,913 10.2 49.1°
Drops below altitude 10° 09:51:49 10° 148° (SSE) 3,188 10.6 49.5°
Sets 09:56:18 0° 126° (SE) 4,070 10.9 50.0°
